CFG1MA EDDF-LZIB

Flight info

Callsign CFG1MA
Flight time 1h 19m
Altitude 31000
Route SULUS7S/18 SULUS Z650 VEMUT/N0450F350 DCT ODNEM/N0408F230 M748 BERVA P974 TABIN
Aircraft A321/M-SDE3FGHIRWY/LB1

Departure

Time 2026-05-04 19:56
Airport Frankfurt Main Airport (EDDF)

Arrival

Time 2026-05-04 21:15
Airport M. R. Štefánik Airport (LZIB)
Time Latitude Longitude Altitude Speed Heading
2026-05-04 19:22 50.04653 8.56816 356 ft 0 kts 295°
2026-05-04 19:43 50.04652 8.56820 356 ft 3 kts 295°
2026-05-04 19:43 50.04641 8.56858 359 ft 4 kts 295°
2026-05-04 19:43 50.04632 8.56890 358 ft 4 kts 280°
2026-05-04 19:44 50.04635 8.56923 361 ft 4 kts 218°
2026-05-04 19:44 50.04659 8.56940 358 ft 4 kts 198°
2026-05-04 19:44 50.04664 8.56941 358 ft 4 kts 204°
2026-05-04 19:44 50.04651 8.56933 364 ft 0 kts 204°
2026-05-04 19:47 50.04642 8.56927 359 ft 4 kts 200°
2026-05-04 19:48 50.04608 8.56911 361 ft 6 kts 195°
2026-05-04 19:48 50.04575 8.56898 360 ft 0 kts 195°
2026-05-04 19:48 50.04572 8.56896 359 ft 1 kts 195°
2026-05-04 19:48 50.04564 8.56893 361 ft 1 kts 195°
2026-05-04 19:49 50.04534 8.56882 359 ft 10 kts 193°
2026-05-04 19:49 50.04464 8.56841 364 ft 10 kts 223°
2026-05-04 19:49 50.04423 8.56710 361 ft 19 kts 250°
2026-05-04 19:49 50.04375 8.56506 359 ft 20 kts 250°
2026-05-04 19:50 50.04343 8.56371 357 ft 20 kts 250°
2026-05-04 19:50 50.04295 8.56169 360 ft 20 kts 249°
2026-05-04 19:50 50.04243 8.55959 358 ft 21 kts 249°
2026-05-04 19:50 50.04190 8.55735 355 ft 22 kts 250°
2026-05-04 19:51 50.04146 8.55543 356 ft 17 kts 250°
2026-05-04 19:51 50.04107 8.55389 358 ft 10 kts 249°
2026-05-04 19:51 50.04085 8.55303 352 ft 8 kts 249°
2026-05-04 19:51 50.04054 8.55177 353 ft 17 kts 250°
2026-05-04 19:52 50.04007 8.54972 361 ft 21 kts 251°
2026-05-04 19:52 50.03954 8.54747 353 ft 25 kts 249°
2026-05-04 19:52 50.03883 8.54454 351 ft 29 kts 249°
2026-05-04 19:52 50.03813 8.54265 350 ft 19 kts 240°
2026-05-04 19:53 50.03765 8.54079 349 ft 18 kts 250°
2026-05-04 19:53 50.03721 8.53893 353 ft 18 kts 250°
2026-05-04 19:53 50.03678 8.53711 349 ft 18 kts 250°
2026-05-04 19:53 50.03633 8.53531 337 ft 18 kts 248°
2026-05-04 19:54 50.03588 8.53355 337 ft 17 kts 249°
2026-05-04 19:54 50.03547 8.53180 335 ft 17 kts 251°
2026-05-04 19:54 50.03507 8.53007 337 ft 17 kts 248°
2026-05-04 19:54 50.03463 8.52839 336 ft 17 kts 248°
2026-05-04 19:55 50.03423 8.52683 334 ft 12 kts 249°
2026-05-04 19:55 50.03395 8.52612 332 ft 8 kts 215°
2026-05-04 19:55 50.03279 8.52594 332 ft 37 kts 179°
2026-05-04 19:55 50.02778 8.52596 333 ft 103 kts 179°
2026-05-04 19:56 50.01881 8.52607 335 ft 153 kts 180°
2026-05-04 19:56 50.00707 8.52620 534 ft 174 kts 181°
2026-05-04 19:56 49.99510 8.52624 1153 ft 172 kts 181°
2026-05-04 19:56 49.98314 8.52627 1771 ft 171 kts 180°
2026-05-04 19:57 49.97128 8.52807 2201 ft 178 kts 159°
2026-05-04 19:57 49.96105 8.54037 2358 ft 200 kts 123°
2026-05-04 19:57 49.95396 8.56027 2517 ft 221 kts 118°
2026-05-04 19:57 49.94637 8.58193 2873 ft 232 kts 118°
2026-05-04 19:58 49.94084 8.60547 3443 ft 236 kts 99°
2026-05-04 19:58 49.93946 8.63180 3711 ft 256 kts 94°
2026-05-04 19:58 49.93835 8.66004 4275 ft 266 kts 95°
2026-05-04 19:58 49.93435 8.68806 5001 ft 268 kts 117°
2026-05-04 19:59 49.92326 8.71101 5729 ft 268 kts 142°
2026-05-04 19:59 49.90819 8.72809 6492 ft 269 kts 147°
2026-05-04 19:59 49.89299 8.74521 7230 ft 272 kts 142°
2026-05-04 19:59 49.88014 8.76709 7942 ft 279 kts 127°
2026-05-04 20:00 49.87046 8.79295 8621 ft 283 kts 122°
2026-05-04 20:00 49.86082 8.81977 9333 ft 286 kts 123°
2026-05-04 20:00 49.85107 8.84684 10021 ft 289 kts 122°
2026-05-04 20:00 49.84100 8.87466 10335 ft 307 kts 122°
2026-05-04 20:01 49.83014 8.90453 10466 ft 330 kts 122°
2026-05-04 20:01 49.81850 8.93652 10594 ft 351 kts 122°
2026-05-04 20:01 49.80617 8.97041 10713 ft 371 kts 122°
2026-05-04 20:01 49.79332 9.00566 11118 ft 380 kts 122°
2026-05-04 20:02 49.78025 9.04151 11684 ft 385 kts 122°
2026-05-04 20:02 49.76735 9.07803 12253 ft 389 kts 117°
2026-05-04 20:02 49.75787 9.11760 12838 ft 395 kts 107°
2026-05-04 20:02 49.75131 9.15910 13405 ft 399 kts 106°
2026-05-04 20:03 49.74472 9.20087 13937 ft 402 kts 106°
2026-05-04 20:03 49.73798 9.24294 14429 ft 405 kts 106°
2026-05-04 20:03 49.73109 9.28530 14909 ft 408 kts 107°
2026-05-04 20:03 49.72410 9.32798 15390 ft 411 kts 107°
2026-05-04 20:04 49.71707 9.37086 15876 ft 414 kts 107°
2026-05-04 20:04 49.70999 9.41409 16342 ft 417 kts 107°
2026-05-04 20:04 49.70283 9.45768 16822 ft 419 kts 107°
2026-05-04 20:04 49.69571 9.50099 17275 ft 422 kts 107°
2026-05-04 20:05 49.68846 9.54509 17745 ft 425 kts 107°
2026-05-04 20:05 49.68116 9.58949 18245 ft 428 kts 106°
2026-05-04 20:05 49.67543 9.63490 18666 ft 434 kts 98°
2026-05-04 20:05 49.67463 9.68169 19085 ft 440 kts 88°
2026-05-04 20:06 49.67909 9.72861 19497 ft 445 kts 78°
2026-05-04 20:06 49.68726 9.77493 19921 ft 449 kts 76°
2026-05-04 20:06 49.69277 9.82240 20316 ft 449 kts 88°
2026-05-04 20:06 49.69482 9.87074 20731 ft 452 kts 88°
2026-05-04 20:07 49.69672 9.91937 21150 ft 455 kts 89°
2026-05-04 20:07 49.69855 9.96833 21547 ft 459 kts 88°
2026-05-04 20:07 49.70077 10.01762 21964 ft 461 kts 87°
2026-05-04 20:07 49.70343 10.06725 22377 ft 465 kts 86°
2026-05-04 20:08 49.70638 10.11711 22782 ft 468 kts 86°
2026-05-04 20:08 49.70940 10.16732 23160 ft 471 kts 86°
2026-05-04 20:08 49.71236 10.21779 23537 ft 474 kts 86°
2026-05-04 20:08 49.71521 10.26873 23863 ft 476 kts 87°
2026-05-04 20:09 49.71792 10.31989 24193 ft 479 kts 87°
2026-05-04 20:09 49.72056 10.37117 24519 ft 481 kts 87°
2026-05-04 20:09 49.72319 10.42278 24842 ft 483 kts 87°
2026-05-04 20:09 49.72585 10.47468 25150 ft 486 kts 88°
2026-05-04 20:10 49.72852 10.52694 25460 ft 488 kts 88°
2026-05-04 20:10 49.73118 10.57934 25780 ft 491 kts 88°
2026-05-04 20:10 49.73380 10.63207 26084 ft 493 kts 88°
2026-05-04 20:10 49.73636 10.68492 26443 ft 493 kts 88°
2026-05-04 20:11 49.73890 10.73764 26824 ft 492 kts 88°
2026-05-04 20:11 49.74146 10.79028 27204 ft 491 kts 88°
2026-05-04 20:11 49.74402 10.84285 27569 ft 490 kts 88°
2026-05-04 20:11 49.74657 10.89542 27916 ft 490 kts 88°
2026-05-04 20:12 49.74907 10.94788 28310 ft 488 kts 88°
2026-05-04 20:12 49.75151 10.99951 28690 ft 487 kts 88°
2026-05-04 20:12 49.75397 11.05173 29059 ft 487 kts 88°
2026-05-04 20:12 49.75640 11.10392 29428 ft 486 kts 88°
2026-05-04 20:13 49.75874 11.15616 29800 ft 485 kts 88°
2026-05-04 20:13 49.76104 11.20811 30142 ft 485 kts 88°
2026-05-04 20:13 49.76332 11.26006 30463 ft 484 kts 88°
2026-05-04 20:13 49.76560 11.31190 30784 ft 483 kts 88°
2026-05-04 20:14 49.76787 11.36379 30918 ft 482 kts 88°
2026-05-04 20:14 49.77236 11.46659 30966 ft 477 kts 88°
2026-05-04 20:15 49.77670 11.56891 30975 ft 476 kts 88°
2026-05-04 20:15 49.78079 11.67122 30985 ft 476 kts 88°
2026-05-04 20:16 49.78492 11.77366 30996 ft 476 kts 88°
2026-05-04 20:16 49.78905 11.87593 30997 ft 476 kts 88°
2026-05-04 20:17 49.79305 11.97811 31007 ft 475 kts 88°
2026-05-04 20:17 49.79684 12.08017 31005 ft 475 kts 88°
2026-05-04 20:18 49.80060 12.18236 30988 ft 475 kts 88°
2026-05-04 20:18 49.80426 12.28390 30956 ft 476 kts 88°
2026-05-04 20:18 49.80611 12.33520 31154 ft 478 kts 88°
2026-05-04 20:19 49.80800 12.38653 31459 ft 478 kts 88°
2026-05-04 20:19 49.80863 12.43787 31774 ft 476 kts 95°
2026-05-04 20:19 49.80488 12.48868 32096 ft 473 kts 103°
2026-05-04 20:19 49.79701 12.53787 32415 ft 470 kts 108°
2026-05-04 20:20 49.78818 12.58653 32757 ft 469 kts 108°
2026-05-04 20:20 49.77936 12.63511 33033 ft 469 kts 108°
2026-05-04 20:20 49.77049 12.68369 33303 ft 470 kts 108°
2026-05-04 20:20 49.76160 12.73233 33579 ft 470 kts 108°
2026-05-04 20:21 49.75274 12.78102 33838 ft 470 kts 108°
2026-05-04 20:21 49.74392 12.82958 34083 ft 469 kts 108°
2026-05-04 20:21 49.72621 12.92662 34575 ft 468 kts 108°
2026-05-04 20:22 49.71727 12.97504 34817 ft 468 kts 108°
2026-05-04 20:22 49.70830 13.02352 34931 ft 471 kts 108°
2026-05-04 20:22 49.69007 13.12152 34950 ft 477 kts 109°
2026-05-04 20:23 49.67165 13.22022 34950 ft 478 kts 109°
2026-05-04 20:23 49.65329 13.31819 34947 ft 479 kts 109°
2026-05-04 20:24 49.63473 13.41679 34948 ft 478 kts 109°
2026-05-04 20:24 49.61610 13.51512 34949 ft 478 kts 109°
2026-05-04 20:25 49.59736 13.61349 34938 ft 478 kts 109°
2026-05-04 20:25 49.57851 13.71180 34941 ft 478 kts 109°
2026-05-04 20:26 49.55956 13.81003 34946 ft 478 kts 109°
2026-05-04 20:26 49.54055 13.90825 34950 ft 479 kts 109°
2026-05-04 20:27 49.52146 14.00643 34948 ft 479 kts 109°
2026-05-04 20:27 49.50226 14.10452 34941 ft 479 kts 109°
2026-05-04 20:28 49.48301 14.20281 34945 ft 480 kts 109°
2026-05-04 20:28 49.46359 14.30111 34940 ft 480 kts 109°
2026-05-04 20:29 49.44416 14.39909 34941 ft 480 kts 109°
2026-05-04 20:29 49.42455 14.49716 34930 ft 480 kts 109°
2026-05-04 20:30 49.40499 14.59462 34927 ft 481 kts 109°
2026-05-04 20:30 49.38520 14.69282 34925 ft 481 kts 109°
2026-05-04 20:31 49.36538 14.79096 34929 ft 482 kts 109°
2026-05-04 20:31 49.34542 14.88903 34926 ft 481 kts 109°
2026-05-04 20:32 49.32535 14.98691 34932 ft 481 kts 109°
2026-05-04 20:32 49.30520 15.08485 34934 ft 481 kts 109°
2026-05-04 20:33 49.28501 15.18258 34938 ft 481 kts 109°
2026-05-04 20:33 49.26477 15.28030 34929 ft 481 kts 109°
2026-05-04 20:34 49.24445 15.37781 34935 ft 481 kts 109°
2026-05-04 20:34 49.22411 15.47449 34942 ft 480 kts 109°
2026-05-04 20:35 49.20691 15.55599 34939 ft 480 kts 109°
2026-05-04 20:35 49.18311 15.66888 34942 ft 480 kts 109°
2026-05-04 20:36 49.16251 15.76606 34936 ft 480 kts 109°
2026-05-04 20:36 49.14522 15.84673 34935 ft 481 kts 109°
2026-05-04 20:37 49.12436 15.94364 34961 ft 481 kts 109°
2026-05-04 20:37 49.10346 16.04067 34968 ft 481 kts 109°
2026-05-04 20:38 49.08246 16.13756 34960 ft 481 kts 109°
2026-05-04 20:38 49.06138 16.23437 34958 ft 481 kts 109°
2026-05-04 20:39 49.04035 16.33117 34953 ft 481 kts 109°
2026-05-04 20:39 49.01919 16.42788 34951 ft 481 kts 109°
2026-05-04 20:40 48.99780 16.52454 34944 ft 481 kts 109°
2026-05-04 20:40 48.97628 16.62099 34955 ft 481 kts 109°
2026-05-04 20:41 48.95492 16.71672 34954 ft 481 kts 109°
2026-05-04 20:41 48.93340 16.81317 34959 ft 481 kts 109°
2026-05-04 20:42 48.91184 16.90936 34957 ft 481 kts 109°
2026-05-04 20:42 48.89039 17.00466 34956 ft 471 kts 109°
2026-05-04 20:43 48.87975 17.05150 34526 ft 469 kts 109°
2026-05-04 20:43 48.86907 17.09834 33879 ft 469 kts 109°
2026-05-04 20:43 48.85638 17.14391 33129 ft 469 kts 118°
2026-05-04 20:43 48.83929 17.18591 32384 ft 469 kts 127°
2026-05-04 20:44 48.81820 17.22362 31644 ft 469 kts 135°
2026-05-04 20:44 48.79552 17.25936 30876 ft 471 kts 134°
2026-05-04 20:44 48.77285 17.29529 30112 ft 472 kts 134°
2026-05-04 20:44 48.75018 17.33138 29233 ft 474 kts 134°
2026-05-04 20:45 48.72740 17.36766 28368 ft 475 kts 134°
2026-05-04 20:45 48.70459 17.40390 27496 ft 476 kts 134°
2026-05-04 20:45 48.68201 17.43965 26632 ft 476 kts 134°
2026-05-04 20:45 48.65887 17.47619 25995 ft 472 kts 135°
2026-05-04 20:46 48.63621 17.51181 25381 ft 467 kts 136°
2026-05-04 20:46 48.61236 17.54363 24778 ft 461 kts 144°
2026-05-04 20:46 48.58581 17.57029 24175 ft 455 kts 150°
2026-05-04 20:46 48.55876 17.59482 23570 ft 451 kts 150°
2026-05-04 20:47 48.53207 17.61909 22668 ft 444 kts 150°
2026-05-04 20:47 48.50586 17.64298 21677 ft 436 kts 150°
2026-05-04 20:47 48.48011 17.66644 20738 ft 429 kts 150°
2026-05-04 20:47 48.45482 17.68946 19834 ft 421 kts 150°
2026-05-04 20:48 48.42988 17.71213 18947 ft 414 kts 151°
2026-05-04 20:48 48.40542 17.73435 18052 ft 407 kts 151°
2026-05-04 20:48 48.38134 17.75621 17080 ft 401 kts 151°
2026-05-04 20:48 48.35764 17.77763 16135 ft 395 kts 151°
2026-05-04 20:49 48.33409 17.79707 15289 ft 382 kts 162°
2026-05-04 20:49 48.30938 17.80430 15038 ft 346 kts 181°
2026-05-04 20:49 48.28629 17.80037 14242 ft 331 kts 199°
2026-05-04 20:49 48.26611 17.78533 13478 ft 320 kts 216°
2026-05-04 20:50 48.24973 17.76305 12546 ft 317 kts 224°
2026-05-04 20:50 48.23405 17.73976 12102 ft 315 kts 224°
2026-05-04 20:50 48.21880 17.71702 11962 ft 303 kts 224°
2026-05-04 20:50 48.20415 17.69509 11830 ft 292 kts 224°
2026-05-04 20:51 48.19001 17.67392 11651 ft 283 kts 224°
2026-05-04 20:51 48.17618 17.65320 11324 ft 280 kts 224°
2026-05-04 20:51 48.16237 17.63264 10970 ft 278 kts 223°
2026-05-04 20:51 48.14878 17.61276 10837 ft 268 kts 223°
2026-05-04 20:52 48.13567 17.59374 10714 ft 257 kts 223°
2026-05-04 20:52 48.12301 17.57539 10532 ft 250 kts 223°
2026-05-04 20:52 48.11064 17.55741 10239 ft 247 kts 224°
2026-05-04 20:52 48.10123 17.53616 9900 ft 249 kts 250°
2026-05-04 20:53 48.10017 17.51038 9513 ft 254 kts 281°
2026-05-04 20:53 48.10841 17.48703 9249 ft 259 kts 310°
2026-05-04 20:53 48.12110 17.46733 9123 ft 265 kts 311°
2026-05-04 20:53 48.13370 17.44802 8945 ft 259 kts 311°
2026-05-04 20:54 48.14629 17.42872 8513 ft 259 kts 313°
2026-05-04 20:54 48.16132 17.41403 8092 ft 262 kts 340°
2026-05-04 20:54 48.17932 17.41193 7700 ft 262 kts 11°
2026-05-04 20:54 48.19568 17.42305 7297 ft 259 kts 41°
2026-05-04 20:55 48.20871 17.44145 6895 ft 257 kts 46°
2026-05-04 20:55 48.22154 17.46013 6510 ft 256 kts 46°
2026-05-04 20:55 48.23429 17.47870 6119 ft 255 kts 46°
2026-05-04 20:55 48.24697 17.49716 5638 ft 254 kts 46°
2026-05-04 20:56 48.25967 17.51563 5129 ft 255 kts 45°
2026-05-04 20:56 48.27210 17.53367 4927 ft 243 kts 46°
2026-05-04 20:56 48.28416 17.55120 4623 ft 240 kts 46°
2026-05-04 20:56 48.29646 17.56806 4322 ft 240 kts 35°
2026-05-04 20:57 48.31190 17.57708 4095 ft 239 kts
2026-05-04 20:57 48.32816 17.57446 3946 ft 234 kts 335°
2026-05-04 20:57 48.34165 17.56181 3833 ft 226 kts 309°
2026-05-04 20:57 48.35256 17.54495 3715 ft 225 kts 307°
2026-05-04 20:58 48.36056 17.52562 3587 ft 214 kts 280°
2026-05-04 20:58 48.36184 17.50415 3468 ft 203 kts 255°
2026-05-04 20:58 48.35701 17.48487 3342 ft 195 kts 232°
2026-05-04 20:58 48.34790 17.47016 3224 ft 191 kts 221°
2026-05-04 20:59 48.33836 17.45633 3117 ft 190 kts 221°
2026-05-04 20:59 48.32881 17.44245 3029 ft 192 kts 222°
2026-05-04 20:59 48.31922 17.42851 3013 ft 192 kts 221°
2026-05-04 20:59 48.30973 17.41472 3020 ft 193 kts 220°
2026-05-04 21:00 48.30008 17.40073 3019 ft 193 kts 219°
2026-05-04 21:00 48.29046 17.38678 3011 ft 192 kts 220°
2026-05-04 21:00 48.28087 17.37286 3007 ft 192 kts 220°
2026-05-04 21:00 48.27134 17.35904 2879 ft 185 kts 220°
2026-05-04 21:01 48.26245 17.34614 2678 ft 172 kts 219°
2026-05-04 21:01 48.25421 17.33419 2465 ft 157 kts 218°
2026-05-04 21:01 48.24670 17.32332 2290 ft 146 kts 217°
2026-05-04 21:01 48.23948 17.31290 2088 ft 142 kts 217°
2026-05-04 21:02 48.23238 17.30266 1898 ft 142 kts 217°
2026-05-04 21:02 48.22528 17.29241 1724 ft 141 kts 217°
2026-05-04 21:02 48.21820 17.28218 1525 ft 142 kts 218°
2026-05-04 21:02 48.21115 17.27200 1353 ft 143 kts 218°
2026-05-04 21:03 48.20394 17.26155 1147 ft 144 kts 220°
2026-05-04 21:03 48.19670 17.25105 901 ft 145 kts 218°
2026-05-04 21:03 48.18939 17.24032 779 ft 151 kts 218°
2026-05-04 21:03 48.18174 17.22953 567 ft 150 kts 219°
2026-05-04 21:04 48.17376 17.21818 658 ft 170 kts 222°
2026-05-04 21:04 48.16532 17.20563 1186 ft 169 kts 222°
2026-05-04 21:04 48.15695 17.19366 1692 ft 167 kts 218°
2026-05-04 21:04 48.14832 17.18137 2010 ft 178 kts 218°
2026-05-04 21:05 48.13874 17.16826 2263 ft 189 kts 213°
2026-05-04 21:05 48.12608 17.16344 2487 ft 201 kts 171°
2026-05-04 21:05 48.11394 17.17478 2745 ft 224 kts 131°
2026-05-04 21:05 48.10916 17.19788 2946 ft 248 kts 93°
2026-05-04 21:06 48.11219 17.22374 3001 ft 256 kts 79°
2026-05-04 21:06 48.11777 17.24915 3004 ft 259 kts 71°
2026-05-04 21:06 48.12804 17.27188 3009 ft 267 kts 53°
2026-05-04 21:06 48.14041 17.29272 3008 ft 268 kts 51°
2026-05-04 21:07 48.15280 17.31312 2987 ft 262 kts 50°
2026-05-04 21:07 48.16497 17.33325 2908 ft 260 kts 51°
2026-05-04 21:07 48.17710 17.35339 2869 ft 261 kts 51°
2026-05-04 21:07 48.18949 17.37326 2816 ft 261 kts 47°
2026-05-04 21:08 48.20219 17.39139 2790 ft 248 kts 46°
2026-05-04 21:08 48.21460 17.40871 2740 ft 237 kts 46°
2026-05-04 21:08 48.22672 17.42384 2700 ft 218 kts 33°
2026-05-04 21:08 48.23974 17.43402 2594 ft 204 kts 26°
2026-05-04 21:09 48.25276 17.44180 2505 ft 200 kts 16°
2026-05-04 21:09 48.26644 17.44313 2505 ft 196 kts 351°
2026-05-04 21:09 48.27991 17.44012 2509 ft 196 kts 346°
2026-05-04 21:09 48.29329 17.43635 2511 ft 195 kts 342°
2026-05-04 21:10 48.30412 17.42623 2506 ft 177 kts 291°
2026-05-04 21:10 48.30540 17.40991 2522 ft 151 kts 235°
2026-05-04 21:10 48.29834 17.39952 2530 ft 143 kts 210°
2026-05-04 21:10 48.29112 17.38883 2523 ft 147 kts 219°
2026-05-04 21:11 48.28401 17.37792 2512 ft 146 kts 219°
2026-05-04 21:11 48.27680 17.36720 2512 ft 146 kts 219°
2026-05-04 21:11 48.26955 17.35657 2513 ft 145 kts 218°
2026-05-04 21:11 48.26230 17.34601 2509 ft 145 kts 218°
2026-05-04 21:12 48.25504 17.33548 2425 ft 145 kts 218°
2026-05-04 21:12 48.24793 17.32517 2282 ft 144 kts 218°
2026-05-04 21:12 48.24079 17.31483 2119 ft 141 kts 216°
2026-05-04 21:12 48.23376 17.30467 1951 ft 140 kts 216°
2026-05-04 21:13 48.22668 17.29446 1741 ft 140 kts 217°
2026-05-04 21:13 48.21968 17.28431 1541 ft 142 kts 218°
2026-05-04 21:13 48.21253 17.27397 1314 ft 143 kts 219°
2026-05-04 21:13 48.20539 17.26369 1096 ft 142 kts 219°
2026-05-04 21:14 48.19826 17.25339 886 ft 144 kts 217°
2026-05-04 21:14 48.19119 17.24275 812 ft 146 kts 222°
2026-05-04 21:14 48.18367 17.23215 574 ft 148 kts 217°
2026-05-04 21:14 48.17621 17.22155 436 ft 143 kts 222°
2026-05-04 21:15 48.16983 17.21252 424 ft 102 kts 224°
2026-05-04 21:15 48.16599 17.20707 429 ft 56 kts 222°
2026-05-04 21:15 48.16349 17.20341 419 ft 38 kts 226°
2026-05-04 21:15 48.16343 17.20141 426 ft 13 kts 307°
2026-05-04 21:16 48.16379 17.20080 427 ft 0 kts 311°
2026-05-04 21:17 48.16393 17.20058 427 ft 6 kts 311°
2026-05-04 21:17 48.16419 17.20031 430 ft 4 kts 353°
2026-05-04 21:17 48.16459 17.20058 425 ft 10 kts 34°
2026-05-04 21:18 48.16518 17.20130 426 ft 11 kts 39°
2026-05-04 21:18 48.16576 17.20202 419 ft 11 kts 40°
2026-05-04 21:18 48.16629 17.20274 424 ft 10 kts 41°
2026-05-04 21:18 48.16681 17.20340 428 ft 10 kts 40°
2026-05-04 21:19 48.16728 17.20327 427 ft 7 kts 323°
2026-05-04 21:19 48.16763 17.20284 425 ft 8 kts 320°
2026-05-04 21:19 48.16818 17.20208 424 ft 13 kts 314°
2026-05-04 21:19 48.16869 17.20106 418 ft 8 kts 285°
2026-05-04 21:20 48.16885 17.20054 430 ft 3 kts 311°